MCBH Kaneohe Bay, HI

5:05 AM HST on February 21, 2017 (GMT -1000)
Kaneohe Bay Marine Corps Air Facility

Weather History for PHNG - September, 2014

Change the Weather History Date:

Friday, September 26, 2014

  Actual Average Record
Temperature  
Mean Temperature 81 °F -  
Max Temperature 87 °F 81 °F 87 °F (2014)
Min Temperature 75 °F 71 °F 70 °F (2000)
Cooling Degree Days 16    
Growing Degree Days 31 (Base 50)    
Moisture  
Dew Point 74 °F    
Average Humidity 80    
Maximum Humidity 96    
Minimum Humidity 65    
Precipitation  
Precipitation 0.00 in - - ()
Sea Level Pressure  
Sea Level Pressure 29.98 in    
Wind  
Wind Speed 8 mph (ENE)    
Max Wind Speed 13 mph    
Max Gust Speed 18 mph    
Visibility 8 miles    
Events      
Averages and records for this station are not official NWS values.
T = Trace of Precipitation, MM = Missing Value Source: NWS Daily Summary

Daily Weather History Graph

Daily Weather History Graph

Search for Another Location

Airport or City:

Trip Planner

Search our weather history database for the weather conditions in past years. The results will help you decide how hot, cold, wet, or windy it might be!

Date:

Astronomy

Sep. 26, 2014 Rise Set
Actual Time 6:20 AM HST 6:23 PM HST
Civil Twilight 5:58 AM HST 6:45 PM HST
Nautical Twilight 5:32 AM HST 7:11 PM HST
Astronomical Twilight 5:07 AM HST 7:37 PM HST
Moon 8:28 AM HST (9/26) 8:12 PM HST (9/26)
Length of Visible Light 12h 46m
Length of Day
12h 02m
Waxing Crescent, 7% of the Moon is Illuminated
Sep 26
Waxing Crescent
Oct 1
First Quarter
Oct 8
Full
Oct 15
Last Quarter
Oct 23
New

Hourly Weather History & Observations

Time (HST) Temp. Heat Index Dew Point Humidity Pressure Visibility Wind Dir Wind Speed Gust Speed Precip Events Conditions
12:57 AM 75.2 °F - 73.9 °F 96% 29.99 in 10.0 mi Variable 5.8 mph - N/A   Clear
1:57 AM 75.2 °F - 73.9 °F 96% 29.98 in 10.0 mi Variable 3.5 mph - N/A   Clear
2:57 AM 75.2 °F - 73.0 °F 93% 29.97 in 10.0 mi ESE 3.5 mph - N/A   Mostly Cloudy
3:28 AM 75.2 °F - 73.4 °F 94% 29.98 in 6.2 mi East 3.5 mph - N/A   Partly Cloudy
3:57 AM 75.2 °F - 73.9 °F 96% 29.96 in 10.0 mi East 6.9 mph - N/A   Mostly Cloudy
4:57 AM - - - N/A% 29.97 in 7.0 mi East 10.4 mph - 0.00 in   Scattered Clouds
5:57 AM 75.2 °F - 73.9 °F 96% 29.98 in 7.0 mi East 10.4 mph - N/A   Scattered Clouds
6:57 AM 77.0 °F - 73.4 °F 89% 29.97 in 10.0 mi East 10.4 mph - N/A   Scattered Clouds
7:57 AM - - - N/A% 30.00 in 10.0 mi ESE 8.1 mph - N/A   Unknown
8:57 AM 79.0 °F - 73.9 °F 84% 30.01 in 7.0 mi East 9.2 mph - N/A   Scattered Clouds
9:57 AM 80.1 °F 84.5 °F 73.9 °F 81% 30.01 in 7.0 mi East 10.4 mph - N/A   Scattered Clouds
10:57 AM 81.0 °F 85.8 °F 73.0 °F 77% 30.01 in 7.0 mi ENE 10.4 mph 18.4 mph N/A   Mostly Cloudy
11:04 AM 82.9 °F 88.8 °F 73.0 °F 72% 30.02 in 6.2 mi ENE 9.2 mph - N/A   Mostly Cloudy
11:31 AM 82.9 °F 88.8 °F 73.0 °F 72% 30.01 in 6.2 mi East 10.4 mph 17.3 mph N/A   Scattered Clouds
11:57 AM 82.9 °F 88.8 °F 73.0 °F 72% 29.99 in 7.0 mi East 10.4 mph 17.3 mph N/A   Scattered Clouds
12:57 PM 87.1 °F 95.4 °F 73.9 °F 65% 29.98 in 10.0 mi NE 11.5 mph - N/A   Scattered Clouds
1:57 PM 87.1 °F 95.4 °F 73.9 °F 65% 29.96 in 10.0 mi NE 12.7 mph - N/A   Partly Cloudy
2:23 PM 87.1 °F 96.3 °F 75.0 °F 67% 29.97 in 6.2 mi NE 11.5 mph - N/A   Mostly Cloudy
2:34 PM 87.1 °F 96.3 °F 75.0 °F 67% 29.97 in 6.2 mi ENE 9.2 mph - N/A   Mostly Cloudy
2:57 PM 87.1 °F 96.3 °F 75.0 °F 67% 29.95 in 10.0 mi NE 9.2 mph - N/A   Mostly Cloudy
3:26 PM 86.0 °F 95.1 °F 75.0 °F 70% 29.96 in 6.2 mi ENE 11.5 mph - N/A   Mostly Cloudy
3:57 PM 86.0 °F 95.1 °F 75.0 °F 70% 29.94 in 10.0 mi ENE 10.4 mph - N/A   Partly Cloudy
4:39 PM 84.9 °F 92.1 °F 73.9 °F 69% 29.95 in 6.2 mi ENE 10.4 mph - N/A   Mostly Cloudy
4:57 PM 84.9 °F 92.1 °F 73.9 °F 69% 29.94 in 10.0 mi ENE 8.1 mph - N/A   Overcast
5:28 PM 82.9 °F 88.8 °F 73.0 °F 72% 29.97 in 6.2 mi ENE 8.1 mph - N/A   Overcast
5:57 PM 82.9 °F 88.8 °F 73.0 °F 72% 29.96 in 10.0 mi Variable 6.9 mph - N/A   Mostly Cloudy
6:57 PM 82.9 °F 90.2 °F 75.0 °F 77% 29.98 in 10.0 mi ENE 8.1 mph - N/A   Scattered Clouds
7:57 PM 80.1 °F 85.1 °F 75.0 °F 85% 29.99 in 10.0 mi East 9.2 mph - N/A   Partly Cloudy
8:57 PM 79.0 °F - 73.9 °F 84% 30.00 in 10.0 mi East 5.8 mph - N/A   Partly Cloudy
9:57 PM 77.0 °F - 73.0 °F 88% 30.01 in 10.0 mi East 9.2 mph - N/A   Scattered Clouds
10:50 PM 75.9 °F - 73.0 °F 91% 30.01 in 6.2 mi East 6.9 mph - N/A   Mostly Cloudy
10:57 PM 75.9 °F - 73.0 °F 91% 30.00 in 10.0 mi East 8.1 mph - N/A   Mostly Cloudy
11:05 PM - - - N/A% 30.01 in 6.2 mi East 8.1 mph - N/A   Scattered Clouds
11:57 PM 75.9 °F - 73.0 °F 91% 29.99 in 10.0 mi East 9.2 mph 17.3 mph N/A   Mostly Cloudy